Regional Weather Roundup
Issued by NWS Jackson, KY

Home | Current Version | Previous Version | Text Only | Print | Product List | Glossary On
Versions: 1 2 3 4 5 6 7 8 9 10 11 12 13 14 15 16 17 18 19 20 21 22 23 24 25 26 27 28 29 30 31 32 33 34 35 36 37 38 39 40 41 42 43 44 45 46 47 48 49 50
000
ASUS43 KJKL 041410
RWRJKL

EAST KENTUCKY HOURLY WEATHER ROUNDUP
NATIONAL WEATHER SERVICE JACKSON KY
1000 AM EDT WED MAY 04 2016

NOTE: "FAIR" INDICATES FEW OR NO CLOUDS BELOW 12,000 FEET WITH
NO SIGNIFICANT WEATHER AND/OR OBSTRUCTIONS TO VISIBILITY.

* THESE REPORTS ARE NOT UNDER NWS QUALITY CONTROL AND MAY NOT
  REPORT WEATHER SUCH AS PRECIPITATION AND FOG.

KYZ079-080-083-085-087-088-110-112-115-119-120-041500
...EASTERN KENTUCKY...

CITY           SKY/WX    TMP DP  RH WIND       PRES   REMARKS
JACKSON        SUNNY     57  47  69 CALM      29.77F
LONDON         SUNNY     57  43  59 W10       29.80F
SOMERSET*      PTSUNNY   55  45  67 W10       29.81F
MONTICELLO*    SUNNY     60  46  59 W16       29.82F
WILLIAMSBURG*  MOSUNNY   57  45  62 W6        29.81F
MIDDLESBORO*   MOSUNNY   58  43  57 W6        29.81F
HARLAN APT*    PTSUNNY   55  45  67 CALM      29.80F
HAZARD APT*    MOSUNNY   57  48  72 W6        29.78
BLACK MTN*       N/A     45  43  93 NE5         N/A
PIKE CO APT*   PTSUNNY   55  50  84 SW3       29.77F
BIG SANDY APT* PTSUNNY   55  50  84 W6        29.77F
MOREHEAD APT*  PTSUNNY   57  48  72 W7        29.77S
$$

KYZ035-036-041-042-044-050-067-078-099-041500
...CENTRAL KENTUCKY...

CITY           SKY/WX    TMP DP  RH WIND       PRES   REMARKS
MT STERLING*   PTSUNNY   55  45  67 W9        29.77F
FLEMING/MASON* PTSUNNY   54  48  78 SW8       29.76S
DANVILLE*      SUNNY     59  43  55 W9        29.78F
RICHMOND*      MOSUNNY   57  45  62 W9        29.77F
LEXINGTON      MOSUNNY   57  45  64 SW10      29.75F
FRANKFORT      PTSUNNY   59  43  55 SW13G24   29.73F
LOUISVILLE     CLOUDY    59  44  57 SW10      29.73F
LEBANON*         N/A     57  46  67 SW10      29.78F
BOWLING GREEN  CLOUDY    60  48  64 SW8       29.80F
$$

KYZ091>093-OHZ055-061-077-WVZ005-015-034-035-042-041500
...SOUTHERN OHIO/WEST VIRGINIA...

CITY           SKY/WX    TMP DP  RH WIND       PRES   REMARKS
COVINGTON      CLOUDY    55  45  68 W12       29.71
COLUMBUS       MOSUNNY   55  48  77 S7        29.68F
DAYTON         PTSUNNY   57  45  64 SW20G25   29.67S
WILMINGTON     PTSUNNY   55  46  71 SW10      29.68F
HUNTINGTON       N/A     59  49  69 SW6       29.74F
CHARLESTON     LGT RAIN  54  50  86 SW5       29.74F
PINEVILLE*     PTSUNNY   54  43  65 MISG      29.81S
BECKLEY        CLOUDY    50  44  80 W8        29.75F
$$

VAZ002-007-008-TNZ017-027-036-066-071-041500
...SOUTHWEST VIRGINIA/EAST TENNESSEE...

CITY           SKY/WX    TMP DP  RH WIND       PRES   REMARKS
WISE*          CLOUDY    50  41  71 W8        29.80F
BRISTOL        PTSUNNY   56  44  64 NW6       29.78F
MORRISTOWN*    CLOUDY    55  46  71 W8        29.81S
SEVIERVILLE*   SUNNY     59  45  58 SW8       29.82S
KNOXVILLE      MOSUNNY   58  44  60 VRB5      29.82F
OAK RIDGE      SUNNY     60  44  55 VRB3      29.83F
CROSSVILLE     MOSUNNY   55  44  66 W8        29.84F
NASHVILLE      SUNNY     61  47  59 W9        29.83F
$$

...KEY TO REMARKS...
VSB - VISIBILITY IN MILES
WCI - WIND CHILL INDEX
HX  - HEAT INDEX

$$



USA.gov is the U.S. government's official web portal to all federal, state and local government web resources and services.